[[{"header":{"parameterUnit":"m.s-1","parameterCategory":1,"la1":30.2991,"la2":30.254,"lo1":-89.0895,"lo2":-89.0444,"dy":0.0017,"dx":0.0017,"nx":28,"ny":28,"refTime":"2025-08-05T21:00:00:Z","depth":0,"parameterNumber":2,"parameterNumberName":"U-component_of_WINDS"},"data":[0,0,0,0,0,0,0,0,0,0,0,0,0,0,0,0,0,0,0,0,0,0,0,0,0,0,0,0,0,0,0,0,0,0,0,0,0,0,0,0,0,0,0,0,0,0,0,0,0,0,0,0,0,0,0,0,0,0,-0.2542,-0.2543,0,-0.2606,-0.2607,-0.2607,-0.2617,-0.2616,-0.2615,-0.2615,-0.2682,-0.2685,-0.2687,0,0,0,0,0,0,0,0,0,0,0,0,0,-0.243,-0.2432,-0.2542,-0.2543,-0.2544,-0.2606,-0.2607,-0.2608,-0.2617,-0.2616,-0.2615,-0.2614,-0.2682,-0.2684,-0.2687,0,0,0,0,0,0,0,0,0,0,0,0,0,-0.2485,-0.2432,-0.2542,-0.2556,-0.2557,-0.2606,-0.2607,-0.2608,-0.2617,-0.2616,-0.2615,-0.2614,-0.2681,-0.2684,-0.2688,-0.2727,0,0,-0.2698,-0.27,0,0,0,0,0,0,0,0,-0.2482,-0.2489,-0.2553,-0.2555,-0.2557,-0.2602,-0.2592,-0.2648,-0.2617,-0.2594,-0.2615,-0.2614,-0.2657,-0.2662,-0.2676,-0.2731,-0.2733,-0.2699,-0.2701,-0.2702,-0.2703,0,0,0,0,0,0,0,-0.2478,-0.2486,-0.2567,-0.2554,-0.2556,-0.2559,-0.2566,-0.2603,-0.263,-0.2596,-0.2597,-0.2604,-0.2658,-0.2673,-0.2678,-0.2734,-0.2699,-0.2702,-0.2704,-0.2705,-0.2825,-0.2826,0,0,0,0,0,0,-0.2471,-0.2483,-0.2565,-0.2569,-0.2516,-0.2562,-0.257,-0.2589,-0.2629,-0.2635,-0.2605,-0.2605,-0.2667,-0.2674,-0.268,-0.2729,-0.2702,-0.2706,-0.2708,-0.2824,-0.2825,-0.2826,0,0,0,0,0,0,-0.2469,-0.2478,-0.2563,-0.2526,-0.2537,-0.2565,-0.2586,-0.259,-0.2605,-0.2636,-0.2641,-0.2615,-0.2667,-0.2675,-0.2715,-0.2732,-0.2707,-0.271,-0.2822,-0.2824,-0.2826,-0.2827,0,0,0,0,0,0,-0.2465,-0.2477,-0.2492,-0.2527,-0.2539,-0.2596,-0.2587,-0.2592,-0.2611,-0.2611,-0.2647,-0.2652,-0.2667,-0.271,-0.2719,-0.2736,-0.2713,-0.2821,-0.2823,-0.2825,-0.2826,-0.2829,-0.2831,0,0,0,0,0,-0.2461,-0.2491,-0.2493,-0.2503,-0.2558,-0.2597,-0.2604,-0.262,-0.2613,-0.2628,-0.2648,-0.2651,-0.2728,-0.2714,-0.2724,-0.2743,-0.282,-0.2823,-0.2825,-0.2825,-0.2828,-0.2831,0,0,0,0,0,0,-0.2458,-0.2496,-0.2498,-0.254,-0.2565,-0.2599,-0.2618,-0.2623,-0.2652,-0.2651,-0.2669,-0.2677,-0.2716,-0.2734,-0.2717,-0.2783,-0.2774,-0.2778,-0.277,-0.2774,-0.2776,-0.2771,-0.2716,0,0,0,0,0,-0.2462,-0.249,-0.2522,-0.2555,-0.2568,-0.2591,-0.2608,-0.2618,-0.2645,-0.2656,-0.2679,-0.2706,-0.2737,-0.2756,-0.2786,-0.2829,-0.2837,-0.2846,-0.2849,-0.2851,-0.2855,-0.2878,-0.2883,-0.2834,-0.2834,-0.2834,0,0,-0.2471,-0.2495,-0.2512,-0.2555,-0.2576,-0.2605,-0.26,-0.2631,-0.2653,-0.2661,-0.27,-0.2718,-0.275,-0.2791,-0.281,-0.2807,-0.287,-0.2854,-0.2855,-0.2858,-0.2881,-0.2886,-0.289,-0.2835,-0.2835,-0.2835,0,0,-0.2502,-0.2523,-0.2553,-0.2574,-0.2605,-0.262,-0.2627,-0.266,-0.2672,-0.2712,-0.2719,-0.2745,-0.2798,-0.282,-0.2838,-0.2877,-0.2881,-0.2886,-0.29,-0.2923,-0.2926,-0.293,-0.2944,-0.2948,-0.289,-0.289,-0.289,0,-0.2509,-0.2552,-0.2568,-0.2598,-0.2617,-0.2626,-0.2657,-0.2676,-0.2716,-0.2729,-0.2724,-0.279,-0.2812,-0.2858,-0.2868,-0.2882,-0.2891,-0.2882,-0.2925,-0.2928,-0.2932,-0.2945,-0.295,-0.289,-0.289,-0.289,-0.289,0,-0.2559,-0.2589,-0.261,-0.2647,-0.2669,-0.2699,-0.272,-0.274,-0.2748,-0.2764,-0.2804,-0.283,-0.2865,-0.2877,-0.2886,-0.2925,-0.2922,-0.2921,-0.2911,-0.2937,-0.2949,-0.2955,-0.2891,-0.289,-0.289,-0.289,0,0,-0.259,-0.2635,-0.2642,-0.2659,-0.2695,-0.2718,-0.275,-0.2783,-0.28,-0.2827,-0.2854,-0.2898,-0.2897,-0.2917,-0.2928,-0.2948,-0.2977,-0.2945,-0.2946,-0.2949,-0.3023,-0.3023,-0.3028,-0.2981,-0.2982,-0.2983,-0.302,0,-0.2624,-0.2679,-0.2694,-0.274,-0.2768,-0.2777,-0.2804,-0.2829,-0.2845,-0.2872,-0.289,-0.292,-0.2917,-0.2929,-0.295,-0.297,-0.2992,-0.2967,-0.3006,-0.3007,-0.2997,-0.3035,-0.3036,-0.3069,-0.3025,-0.3026,-0.3026,0,-0.2671,-0.2699,-0.2748,-0.2779,-0.2792,-0.2816,-0.2848,-0.2873,-0.2902,-0.2912,-0.2935,-0.2944,-0.2977,-0.2967,-0.3013,-0.2996,-0.3013,-0.3025,-0.3027,-0.303,-0.3018,-0.304,-0.3081,-0.3085,-0.3034,-0.3034,-0.3033,0,-0.2688,-0.2737,-0.2773,-0.2787,-0.2825,-0.2842,-0.2859,-0.2886,-0.2906,-0.2934,-0.2947,-0.2979,-0.2997,-0.3022,-0.3039,-0.303,-0.3084,-0.3075,-0.3094,-0.3093,-0.3104,-0.3103,-0.3148,-0.3116,-0.3116,-0.3116,-0.3116,0,-0.2724,-0.2754,-0.2781,-0.2802,-0.2836,-0.2853,-0.2886,-0.2904,-0.2928,-0.2954,-0.2965,-0.2989,-0.3011,-0.3039,-0.3053,-0.3089,-0.3097,-0.3107,-0.311,-0.3105,-0.3104,-0.3116,-0.3114,-0.3117,-0.3117,-0.3117,-0.3117,0,-0.2748,-0.2767,-0.2806,-0.2839,-0.2848,-0.2871,-0.2899,-0.2921,-0.2938,-0.297,-0.2979,-0.3005,-0.3038,-0.3058,-0.31,-0.311,-0.3149,-0.3152,-0.3139,-0.3141,-0.3158,-0.3156,-0.3212,-0.322,-0.3183,-0.3183,-0.3184,0,-0.2769,-0.2792,-0.2827,-0.2845,-0.2861,-0.289,-0.291,-0.2928,-0.2948,-0.2982,-0.3,-0.3034,-0.3061,-0.3113,-0.3136,-0.3168,-0.3172,-0.3189,-0.3177,-0.3171,-0.3171,-0.317,-0.3172,-0.3191,-0.3191,-0.3192,-0.3192,0,-0.2806,-0.2814,-0.2841,-0.2872,-0.2895,-0.292,-0.2946,-0.296,-0.2982,-0.3005,-0.3038,-0.3059,-0.3102,-0.3135,-0.3169,-0.3187,-0.3193,-0.3196,-0.3202,-0.3197,-0.3188,-0.3192,-0.3144,-0.3194,-0.3194,-0.3194,-0.3194,-0.3194,-0.2829,-0.2849,-0.2877,-0.2907,-0.2928,-0.2951,-0.2973,-0.2992,-0.302,-0.3056,-0.3065,-0.31,-0.3129,-0.3175,-0.3194,-0.3222,-0.3219,-0.3228,-0.323,-0.3232,-0.3232,-0.3184,-0.3228,-0.3228,-0.3228,-0.3228,-0.3228,0,-0.2865,-0.2883,-0.2911,-0.2945,-0.2969,-0.2973,-0.3001,-0.3021,-0.3051,-0.3077,-0.3104,-0.3142,-0.3174,-0.32,-0.3233,-0.325,-0.3254,-0.3258,-0.3257,-0.3261,-0.3232,-0.3223,-0.3255,-0.3255,-0.3255,-0.3255,-0.3255,-0.3255,-0.2886,-0.2921,-0.2933,-0.2979,-0.2997,-0.303,-0.3046,-0.3068,-0.3089,-0.3131,-0.3157,-0.3173,-0.3199,-0.3234,-0.3264,-0.3271,-0.3283,-0.3286,-0.3293,-0.3266,-0.3263,-0.326,-0.3252,-0.3289,-0.3289,-0.332,-0.332,-0.332]},{"header":{"parameterUnit":"m.s-1","parameterCategory":1,"la1":30.2991,"la2":30.254,"lo1":-89.0895,"lo2":-89.0444,"dy":0.0017,"dx":0.0017,"nx":28,"ny":28,"refTime":"2025-08-05T21:00:00:Z","depth":0,"parameterNumber":3,"parameterNumberName":"V-component_of_WINDS"},"data":[0,0,0,0,0,0,0,0,0,0,0,0,0,0,0,0,0,0,0,0,0,0,0,0,0,0,0,0,0,0,0,0,0,0,0,0,0,0,0,0,0,0,0,0,0,0,0,0,0,0,0,0,0,0,0,0,0,0,-1.932,-1.9321,0,-1.9359,-1.9359,-1.936,-1.9334,-1.9333,-1.9332,-1.9331,-1.9369,-1.9371,-1.9373,0,0,0,0,0,0,0,0,0,0,0,0,0,-1.9222,-1.9224,-1.932,-1.9321,-1.9321,-1.9359,-1.9359,-1.936,-1.9334,-1.9333,-1.9331,-1.933,-1.9368,-1.937,-1.9373,0,0,0,0,0,0,0,0,0,0,0,0,0,-1.9263,-1.9225,-1.932,-1.9313,-1.9313,-1.9359,-1.9359,-1.936,-1.9335,-1.9333,-1.9331,-1.9329,-1.9367,-1.937,-1.9373,-1.9428,0,0,-1.9383,-1.9384,0,0,0,0,0,0,0,0,-1.9261,-1.9267,-1.9314,-1.9314,-1.9313,-1.934,-1.9339,-1.9383,-1.9335,-1.9326,-1.9331,-1.9329,-1.936,-1.9364,-1.9375,-1.943,-1.9431,-1.9383,-1.9385,-1.9387,-1.9387,0,0,0,0,0,0,0,-1.9258,-1.9265,-1.9336,-1.9314,-1.9314,-1.9307,-1.9311,-1.9347,-1.9353,-1.9327,-1.9325,-1.933,-1.936,-1.9372,-1.9376,-1.9432,-1.9383,-1.9386,-1.9388,-1.9389,-1.9532,-1.9534,0,0,0,0,0,0,-1.9256,-1.9263,-1.9334,-1.9337,-1.9282,-1.931,-1.9315,-1.9333,-1.9352,-1.9353,-1.9332,-1.9329,-1.9368,-1.9372,-1.9377,-1.9442,-1.9386,-1.9389,-1.9391,-1.953,-1.9533,-1.9535,0,0,0,0,0,0,-1.9254,-1.9263,-1.9333,-1.9299,-1.9308,-1.9314,-1.9335,-1.9335,-1.9347,-1.9356,-1.9356,-1.9343,-1.9366,-1.9373,-1.9415,-1.9443,-1.9391,-1.9394,-1.9528,-1.9531,-1.9534,-1.9572,0,0,0,0,0,0,-1.9251,-1.9262,-1.9284,-1.93,-1.931,-1.9371,-1.9337,-1.9337,-1.9353,-1.9349,-1.9367,-1.9368,-1.9365,-1.9411,-1.9419,-1.9446,-1.9396,-1.9526,-1.953,-1.9533,-1.9569,-1.9576,-1.9583,0,0,0,0,0,-1.9248,-1.9293,-1.9285,-1.9294,-1.9337,-1.9373,-1.9378,-1.9375,-1.9355,-1.9376,-1.9382,-1.9367,-1.9438,-1.9415,-1.9424,-1.9453,-1.9524,-1.9528,-1.9533,-1.9565,-1.9575,-1.9582,0,0,0,0,0,0,-1.9279,-1.9295,-1.9286,-1.9338,-1.9354,-1.9369,-1.9395,-1.9385,-1.9407,-1.9403,-1.9398,-1.9402,-1.9446,-1.9454,-1.9428,-1.9506,-1.9478,-1.9484,-1.95,-1.9509,-1.9516,-1.9513,-1.9399,0,0,0,0,0,-1.9292,-1.9321,-1.9333,-1.9377,-1.9386,-1.9389,-1.9405,-1.9401,-1.9418,-1.9424,-1.9433,-1.9449,-1.9475,-1.9492,-1.9517,-1.9569,-1.9572,-1.9593,-1.96,-1.9606,-1.9611,-1.9639,-1.9648,-1.9549,-1.9549,-1.9549,0,0,-1.9319,-1.9331,-1.935,-1.9384,-1.9396,-1.9425,-1.9395,-1.9428,-1.9449,-1.9429,-1.947,-1.9477,-1.9494,-1.9542,-1.9564,-1.955,-1.9639,-1.9611,-1.9616,-1.9618,-1.9644,-1.9654,-1.9662,-1.9552,-1.9551,-1.9551,0,0,-1.9384,-1.9396,-1.9434,-1.9447,-1.9466,-1.9468,-1.9477,-1.9492,-1.9496,-1.9537,-1.9523,-1.9547,-1.9592,-1.9605,-1.9618,-1.9686,-1.9673,-1.9694,-1.973,-1.9757,-1.9765,-1.9772,-1.9796,-1.9804,-1.9699,-1.9699,-1.9699,0,-1.9415,-1.9459,-1.9455,-1.9488,-1.9503,-1.9486,-1.9524,-1.9537,-1.9562,-1.9573,-1.9557,-1.9612,-1.9623,-1.9673,-1.969,-1.97,-1.971,-1.9692,-1.9764,-1.9771,-1.9777,-1.98,-1.9809,-1.9701,-1.9701,-1.9701,-1.9701,0,-1.9496,-1.9527,-1.9555,-1.9581,-1.9599,-1.9634,-1.9635,-1.9653,-1.9647,-1.965,-1.9692,-1.9704,-1.973,-1.9741,-1.9736,-1.9791,-1.9781,-1.9765,-1.9736,-1.9789,-1.9811,-1.9819,-1.9705,-1.9704,-1.9703,-1.9703,0,0,-1.9582,-1.9604,-1.9615,-1.9626,-1.9645,-1.9668,-1.9702,-1.9728,-1.9744,-1.9762,-1.979,-1.9828,-1.9813,-1.9827,-1.9822,-1.9846,-1.9898,-1.9826,-1.9827,-1.9839,-1.9959,-1.9971,-1.9981,-1.989,-1.9892,-1.9893,-1.9957,0,-1.9648,-1.9708,-1.9704,-1.9761,-1.9789,-1.9772,-1.9802,-1.9816,-1.982,-1.9843,-1.9847,-1.9874,-1.9852,-1.986,-1.9883,-1.9887,-1.9922,-1.9882,-1.9915,-1.9917,-1.9912,-1.9992,-2.0006,-2.0066,-1.9965,-1.9967,-1.9968,0,-1.9732,-1.9753,-1.9812,-1.9827,-1.9838,-1.9865,-1.9888,-1.9911,-1.9926,-1.9927,-1.9942,-1.9934,-1.9967,-1.9937,-1.9983,-1.9956,-1.9969,-1.9973,-1.9976,-1.9979,-1.9946,-1.9998,-2.0085,-2.0094,-1.9981,-1.998,-1.9979,0,-1.9789,-1.9832,-1.9873,-1.9882,-1.99,-1.9919,-1.9927,-1.9941,-1.9956,-1.9976,-1.9986,-2.0009,-2.0022,-2.004,-2.0037,-2.0016,-2.0083,-2.0054,-2.0084,-2.0085,-2.01,-2.0099,-2.0191,-2.0108,-2.0108,-2.0108,-2.0108,0,-1.9862,-1.9899,-1.9898,-1.9923,-1.9964,-1.9959,-1.9998,-2.0004,-2.0016,-2.0042,-2.0029,-2.0053,-2.0048,-2.0071,-2.0069,-2.0107,-2.0113,-2.0114,-2.0113,-2.0115,-2.0115,-2.0124,-2.012,-2.011,-2.011,-2.0109,-2.0109,0,-1.9932,-1.9934,-1.9977,-1.999,-1.9994,-2.0023,-2.0033,-2.0057,-2.0059,-2.0091,-2.0098,-2.0101,-2.0128,-2.0127,-2.0158,-2.0156,-2.0203,-2.0197,-2.0198,-2.0196,-2.0227,-2.0224,-2.0328,-2.0341,-2.025,-2.0251,-2.0252,0,-1.9979,-2.0007,-2.0023,-2.0039,-2.0049,-2.0075,-2.009,-2.0086,-2.0103,-2.0122,-2.0143,-2.0168,-2.0189,-2.0232,-2.0237,-2.026,-2.0254,-2.0289,-2.0258,-2.0259,-2.0255,-2.0253,-2.0256,-2.0295,-2.0296,-2.0297,-2.0298,0,-2.0062,-2.0061,-2.0085,-2.0108,-2.0127,-2.0145,-2.0161,-2.0175,-2.0172,-2.0191,-2.0219,-2.0235,-2.0266,-2.0291,-2.0313,-2.032,-2.0309,-2.0308,-2.0316,-2.0319,-2.0318,-2.0319,-2.0214,-2.0305,-2.0305,-2.0304,-2.0304,-2.0303,-2.0122,-2.0146,-2.0161,-2.0187,-2.0199,-2.0214,-2.0236,-2.0241,-2.0264,-2.0289,-2.0285,-2.0315,-2.0329,-2.0357,-2.0367,-2.039,-2.0378,-2.039,-2.0393,-2.0396,-2.0399,-2.0314,-2.0394,-2.0394,-2.0393,-2.0393,-2.0393,0,-2.0205,-2.0213,-2.0237,-2.026,-2.0281,-2.0268,-2.0285,-2.0303,-2.033,-2.0344,-2.0364,-2.0395,-2.0419,-2.0426,-2.0449,-2.0466,-2.0461,-2.0472,-2.0471,-2.0473,-2.0409,-2.04,-2.0476,-2.0476,-2.0476,-2.0476,-2.0476,-2.0476,-2.025,-2.0289,-2.029,-2.0334,-2.0342,-2.0372,-2.0383,-2.0397,-2.0408,-2.0443,-2.0464,-2.0467,-2.0478,-2.0502,-2.0523,-2.0524,-2.0533,-2.0546,-2.0545,-2.0486,-2.0477,-2.047,-2.0461,-2.0548,-2.0549,-2.0607,-2.0608,-2.0608]}]]